Location: Charlotte
(35.2270°N, 80.8430°W)
Time: 03:35:36
(UTC-04:00)

Daily predictions for brighter satellites

Satellite Brightness Start Highest point End
(mag) Time Altitude Azimuth Time Altitude Azimuth Time Altitude Azimuth
COSMOS 2428 3.9 00:01:33 10° NW 00:06:25 30° WSW 00:06:47 30° WSW
Cosmos 1455 4.0 00:05:23 10° NNW 00:07:33 30° NW 00:07:33 30° NW
Cosmos 2297 Rocket 2.2 00:10:25 79° WNW 00:10:25 79° WNW 00:16:02 10° NNE
H-2A R/B 3.2 00:10:13 33° WSW 00:10:31 33° W 00:15:22 10° NNW
ATLAS 3B R/B 3.4 00:08:03 10° NNW 00:14:36 42° NE 00:16:06 37° E
Lacrosse 4 Rocket 3.3 00:16:38 10° N 00:19:35 26° NE 00:19:35 26° NE
Cosmos 1269 Rocket 4.5 00:17:36 10° N 00:22:09 55° NNE 00:22:09 55° NNE
Cosmos 2219 Rocket 2.8 00:17:34 10° NW 00:22:26 45° W 00:22:26 45° W
ALOS 2 4.3 00:27:29 28° NE 00:27:29 28° NE 00:30:07 10° N
Terra 3.9 00:34:39 18° W 00:34:39 18° W 00:37:27 10° NW
Cosmos 1980 4.4 00:32:57 10° NNW 00:37:35 45° W 00:37:35 45° W
CZ-4B R/B 4.3 00:44:09 16° NNE 00:44:09 16° NNE 00:45:02 10° N
H-2A R/B 4.2 00:38:04 10° NNE 00:40:11 29° NNE 00:40:11 29° NNE
Cosmos 1125 Rocket 4.3 00:46:29 48° WNW 00:46:29 48° WNW 00:51:18 10° N
COSMOS 2455 3.0 00:40:11 10° NNW 00:45:49 70° NNE 00:45:49 70° NNE
Cosmos 2074 Rocket 4.0 00:47:39 76° NE 00:47:39 76° NE 00:53:34 10° N
Meteor 2-3 Rocket 4.0 00:49:35 64° NNE 00:49:35 64° NNE 00:54:27 10° N
Cosmos 2237 Rocket 3.2 00:46:11 10° NW 00:50:31 37° W 00:50:31 37° W
SeaSat 1 3.4 00:55:21 43° NW 00:55:21 43° NW 00:58:45 10° NNW
Cosmos 2327 Rocket 4.5 00:57:09 82° NNW 00:57:09 82° NNW 01:03:17 10° N
Cosmos 2154 Rocket 4.3 01:14:44 59° ENE 01:14:44 59° ENE 01:20:23 10° NNE
ASTEX 1 4.4 01:14:25 10° N 01:17:51 44° NNW 01:17:51 44° NNW
Cosmos 2184 Rocket 4.5 01:26:37 50° WNW 01:26:37 50° WNW 01:32:26 10° N
Cosmos 2263 Rocket 3.7 01:35:36 27° ENE 01:35:36 27° ENE 01:39:06 10° NE
FALCON 9 R/B 3.8 01:29:23 10° W 01:36:25 33° W 01:36:25 33° W
SL-16 R/B 3.6 01:38:19 10° NW 01:41:37 28° WNW 01:41:37 28° WNW
Cosmos 2341 Rocket 4.0 01:44:41 80° NNE 01:44:41 80° NNE 01:50:44 10° N
CZ-2C R/B 3.7 01:46:35 58° ENE 01:46:35 58° ENE 01:51:50 10° N
Cosmos 44 4.1 01:51:01 54° N 01:51:01 54° N 01:55:21 10° NNE
Meteor 1-27 Rocket 4.1 01:45:50 10° N 01:51:04 62° NE 01:51:04 62° NE
Cosmos 2251 Rocket 4.5 01:49:12 10° NNW 01:52:48 42° NW 01:52:48 42° NW
Lacrosse 4 Rocket 4.2 01:55:28 10° NW 01:55:56 12° WNW 01:55:56 12° WNW
ATLAS 3B R/B 3.8 01:59:07 10° NW 02:03:20 29° W 02:03:20 29° W
SL-8 Rocket 4.0 02:05:15 73° E 02:05:15 73° E 02:11:23 10° N
CZ-2C R/B 3.4 02:00:46 10° N 02:04:56 44° NW 02:04:56 44° NW
Cosmos 1943 3.6 02:02:51 10° NNW 02:08:22 56° ENE 02:08:22 56° ENE
USA 238 DEB 3.7 02:03:04 10° NW 02:09:41 71° W 02:09:41 71° W
USA 238 3.7 02:03:10 10° NW 02:09:49 72° W 02:09:49 72° W
Cosmos 2218 Rocket 4.1 02:10:59 67° E 02:10:59 67° E 02:17:10 10° NNE
H-2A ROCKET BODY 4.2 01:51:49 10° W 02:14:26 43° SW 02:14:26 43° SW
Meteor 2-13 Rocket 4.4 02:17:20 76° NW 02:17:20 76° NW 02:23:10 10° N
Cosmos 2366 rocket 3.9 02:27:26 79° E 02:27:26 79° E 02:33:37 10° N
USA 234 4.2 02:23:03 10° ESE 02:29:09 44° NE 02:35:16 10° NNW
Okean 2 Rocket 4.2 02:30:45 41° NNW 02:30:45 41° NNW 02:33:47 10° N
Iridium 4 Rocket 4.5 02:25:26 10° NNE 02:29:33 37° ENE 02:29:33 37° ENE
NOSS 3-2 (C) 4.2 02:36:21 10° NNW 02:43:57 71° ENE 02:48:50 26° SE
NPP 4.1 02:42:29 10° NNE 02:47:43 50° E 02:47:48 50° ESE
IRAS Rocket 4.4 02:45:36 10° NNE 02:51:04 59° ESE 02:51:15 58° ESE
Cosmos 864 Rocket 4.4 02:51:33 69° W 02:51:45 70° W 02:57:55 10° N
Cosmos 1727 Rocket 3.8 02:45:50 10° N 02:52:06 89° E 02:52:37 77° S
CZ-4C R/B 2.8 02:48:26 10° NW 02:55:43 73° WSW 02:57:14 59° S
Cosmos 1812 4.3 02:58:56 10° NNE 03:02:06 31° ENE 03:02:06 31° ENE
NOSS 3-4 (A) 4.3 03:01:27 37° W 03:02:55 43° NW 03:09:08 10° NNE
NOSS 3-4 (C) 4.2 03:01:34 38° W 03:03:00 43° NW 03:09:14 10° NNE
ERS-2 3.7 02:59:47 10° NNE 03:02:13 34° NE 03:02:13 34° NE
NOSS 3-2 (A) 3.9 03:00:37 10° NW 03:08:15 72° WSW 03:10:44 47° S
AQUA 3.9 03:05:45 10° NNE 03:10:24 67° E 03:10:24 67° E
CZ-2D R/B 4.2 03:06:42 10° NE 03:10:33 19° E 03:13:05 15° SE
RESURS DK-1 3.6 03:13:25 35° NNW 03:13:25 35° NNW 03:16:30 10° N
Cosmos 2056 Rocket 3.6 03:13:32 63° WNW 03:13:35 63° WNW 03:18:49 10° N
Cosmos 1536 Rocket 3.9 03:09:46 10° N 03:13:24 61° NNW 03:13:24 61° NNW
Cosmos 1844 Rocket 3.2 03:14:55 44° SE 03:15:50 48° ESE 03:21:17 10° NNE
Cosmos 2263 Rocket 3.3 03:17:17 31° WNW 03:18:00 32° WNW 03:23:04 10° N
Spot 4 Rocket 4.5 03:20:19 10° NNE 03:25:21 53° E 03:26:24 45° SE
Cosmos 407 Rocket 3.8 03:20:43 10° N 03:25:51 63° ENE 03:27:41 38° SE
Meteor 1-25 Rocket 4.2 03:27:44 61° WSW 03:28:27 68° W 03:34:13 10° N
IRS-1C 4.0 03:25:08 10° NNE 03:30:30 87° ESE 03:31:24 63° S
COSMOS 2406 3.5 03:25:36 10° NNW 03:31:22 68° ENE 03:34:45 25° SE
Cosmos 2278 Rocket 3.4 03:32:46 25° SE 03:34:55 33° ESE 03:39:55 10° NE
Okean 1-7 Rocket 3.9 03:31:11 10° N 03:35:44 63° E 03:36:41 50° SE
Cosmos 1000 Rocket 4.4 03:30:29 10° N 03:36:38 88° E 03:38:56 42° S
SL-16 R/B 3.7 03:31:30 10° SE 03:37:15 41° ENE 03:43:01 10° N
SL-27 R/B 3.0 03:35:33 10° N 03:39:04 57° ENE 03:39:04 57° ENE
Okean 1 Rocket 2.9 03:41:18 76° W 03:41:24 76° W 03:45:51 10° N
Cosmos 1602 4.1 03:45:03 54° ESE 03:45:20 55° E 03:49:06 10° NNE
IRS-1D 4.0 03:41:02 10° NNE 03:45:59 51° E 03:47:47 34° SSE
TIMED 4.3 03:48:38 72° S 03:49:03 86° ESE 03:53:26 10° NNE
Okean O Rocket 4.1 03:46:54 10° ENE 03:49:20 15° E 03:51:45 10° SE
UNK 4.0 03:46:39 34° SW 03:50:46 76° SE 03:54:34 10° NE
NOSS 2-2 (E) 3.4 03:51:36 64° SSE 03:52:04 72° ESE 03:56:40 10° NE
Cosmos 1867 4.2 03:47:25 10° NW 03:51:47 37° W 03:51:47 37° W
Cosmos 1605 Rocket 4.3 03:49:43 28° SSE 03:53:00 64° E 03:59:10 10° NNE
Cosmos 1821 Rocket 4.0 03:52:02 42° SSW 03:54:19 72° W 04:00:43 10° N
Cosmos 1461 3.8 03:57:06 37° SSE 03:58:25 47° ESE 04:02:54 10° NE
GP-B 3.5 03:54:31 10° NNW 03:58:45 44° W 03:58:56 44° W
Resurs 1-4 Rocket 2.5 03:53:37 10° NNE 03:58:51 57° E 04:01:30 28° SSE
Cosmos 2123 Rocket 4.2 03:53:43 10° N 04:00:04 74° E 04:04:55 18° SSE
Cosmos 1954 Rocket 4.1 03:55:18 10° NNW 04:00:29 75° ENE 04:04:25 17° SSE
Cosmos 1536 3.1 04:00:52 44° SSE 04:01:56 64° E 04:05:58 10° NNE
Meteor 2-14 Rocket 4.3 04:03:37 35° SSW 04:06:21 81° W 04:12:27 10° N
Cosmos 1455 Rocket 4.5 04:04:40 17° SSE 04:07:35 35° E 04:11:37 10° NNE
Meteor 2-21 Rocket 4.5 04:08:12 36° SSW 04:10:40 63° W 04:16:43 10° N
USA 234 3.4 04:05:47 10° SSE 04:12:02 49° SW 04:18:20 10° NW
Gbstr 26 Del rocket 3.4 04:12:40 36° W 04:13:42 45° NW 04:17:18 10° NE
UNKNOWN OBJECT B 3.5 04:09:51 10° NNE 04:13:51 51° E 04:15:49 27° SSE
Cosmos 1633 2.5 04:13:03 51° SSE 04:13:51 76° E 04:17:28 10° N
Cosmos 1025 Rocket 3.0 04:12:00 10° N 04:16:18 82° E 04:18:38 27° S
Cosmos 1356 3.7 04:18:16 40° SSE 04:19:22 66° E 04:22:54 10° NNE
Cosmos 1452 Rocket 4.3 04:18:09 29° WSW 04:19:48 36° WNW 04:24:37 10° N
Meteor 2-15 4.4 04:14:35 10° N 04:20:46 80° W 04:25:35 17° S
ARIANE 5 R/B 2.6 04:16:25 10° N 04:21:20 61° WNW 04:23:26 33° SW
Cosmos 724 4.3 04:15:35 10° NW 04:21:41 67° WSW 04:27:49 10° SSE
ADEOS 4.4 04:17:00 10° N 04:21:43 35° WNW 04:23:30 27° WSW
SME Rocket 3.0 04:19:45 16° SSE 04:22:43 70° ENE 04:26:36 10° N
Meteor 1-19 Rocket 4.2 04:18:18 10° N 04:24:08 83° W 04:29:11 14° S
UNK 3.6 04:27:19 20° S 04:30:31 76° WSW 04:35:11 10° NNW
EO 1 Del DPAF 3.2 04:29:12 30° S 04:31:00 66° WSW 04:34:53 10° NNW
Cosmos 1420 Rocket 4.2 04:29:23 29° SW 04:31:54 56° WNW 04:37:07 10° N
COSMOS 2487 2.7 04:28:29 10° NNW 04:32:07 72° ENE 04:35:42 10° SSE
Cosmos 1544 Rocket 3.5 04:30:36 28° SSW 04:32:53 79° W 04:37:18 10° N
Meteor 1-11 Rocket 4.2 04:30:22 27° SW 04:33:14 47° WNW 04:38:59 10° N
CENTAUR R/B 3.1 04:25:25 10° NNW 04:33:25 85° WSW 04:41:45 10° SSE
USA 161 3.6 04:35:20 15° WNW 04:35:20 15° WNW 04:36:16 10° NW
Tiangong 1 1.1 04:34:49 49° SSW 04:34:49 49° SSW 04:37:38 10° SE
Cosmos 1023 Rocket 4.3 04:33:16 10° NNW 04:38:21 74° WSW 04:43:24 10° S
MOS 1-B 4.4 04:35:44 10° N 04:41:32 68° WNW 04:45:39 20° SSW
Cosmos 1400 Rocket 3.1 04:44:58 28° SW 04:46:40 48° W 04:50:28 10° N
Cosmos 2100 Rocket 4.2 04:41:16 10° S 04:47:27 75° E 04:53:45 10° N
Cosmos 1459 Rocket 4.3 04:41:35 10° S 04:47:54 71° E 04:54:12 10° N
OTV 4 1.1 04:48:07 33° SSW 04:48:07 33° SSW 04:50:41 10° SE
CZ-2D R/B 2.6 04:45:36 10° N 04:50:47 47° WNW 04:54:26 19° SW
Yuri Rocket 3.9 04:50:03 20° WSW 04:53:14 38° S 04:57:26 10° ESE
Chunghua 1 4.4 04:52:21 15° W 04:55:21 78° S 04:59:04 10° ESE
Cosmos 1892 Rocket 3.8 04:53:53 10° NNW 04:58:04 47° W 05:01:38 13° SSW
Cosmos 1140 Rocket 3.7 04:53:24 10° NNW 04:58:16 45° WSW 05:03:08 10° S
PAYLOAD B 4.4 04:54:00 10° NNE 04:59:36 78° ESE 05:05:12 10° S
Cosmos 1844 Rocket 4.3 04:56:36 13° W 04:59:58 21° WNW 05:04:15 10° N
Meteor 1-23 Rocket 4.4 04:58:09 10° NNW 05:03:41 52° W 05:09:06 10° SSW
BREEZE-M DEB (TANK) 1.8 05:02:52 20° WSW 05:04:38 71° NNW 05:07:40 10° NE
Cosmos 1850 Rocket 4.1 05:00:45 10° NNW 05:05:51 53° WSW 05:10:57 10° S
CZ-4B R/B 3.4 05:02:03 10° NNE 05:06:37 72° ESE 05:11:03 10° S
Timation 2 Rocket 3.9 05:00:43 10° NNW 05:06:52 88° ENE 05:12:50 10° SSE
Cosmos 1741 Rocket 4.1 05:01:54 10° NNW 05:07:02 54° WSW 05:12:06 10° S
Cosmos 2061 Rocket 4.0 05:05:18 10° S 05:11:35 76° W 05:17:59 10° N
Cosmos 1315 Rocket 3.4 05:09:04 15° SW 05:12:08 42° WNW 05:16:01 10° N
Okean-O 3.8 05:08:28 10° NNE 05:12:41 42° E 05:16:53 10° S
Meteor 1-12 Rocket 4.3 05:08:12 10° S 05:14:07 86° W 05:19:57 10° N
Cosmos 2297 3.8 05:11:17 13° SSW 05:16:23 63° WNW 05:22:02 10° NNE
Skynet4D Del rocket 4.3 05:13:16 13° WSW 05:17:25 34° S 05:22:33 10° ESE
CZ-4B DEB 4.2 05:11:51 10° NNE 05:17:27 85° WNW 05:23:00 10° SSW
Cosmos 2278 Rocket 3.3 05:14:38 13° WSW 05:18:55 30° WNW 05:23:53 10° N
APEX 2.6 05:17:41 15° SW 05:19:52 60° WNW 05:22:58 10° NNE
SL-16 R/B 3.5 05:15:43 10° SSW 05:20:55 27° W 05:26:08 10° NW
Okean 2 4.2 05:17:26 10° NNW 05:21:04 31° W 05:24:43 10° SSW
Cosmos 1302 Rocket 4.4 05:19:49 10° S 05:24:56 64° ESE 05:30:07 10° NNE
Okean O Rocket 2.2 05:21:47 10° N 05:25:50 39° WNW 05:29:53 10° SW
Cosmos 1975 2.8 05:22:13 10° SSW 05:26:11 64° W 05:30:10 10° N
CZ-2C R/B 4.1 05:22:45 10° S 05:27:17 47° W 05:31:55 10° NNW
Cosmos 1602 Rocket 3.5 05:25:15 10° NNW 05:29:32 63° W 05:33:50 10° S
ATLAS 5 CENTAUR R/B 2.4 05:23:29 10° NNW 05:29:37 81° WSW 05:36:05 10° SSE
Cosmos 1346 Rocket 3.3 05:26:36 10° N 05:30:38 65° E 05:34:36 10° SSE
OAO 3 Copernicus 4.3 05:27:58 10° WSW 05:32:59 78° S 05:38:01 10° E
Cosmos 2098 Rocket 3.7 05:31:51 10° SSE 05:34:55 45° E 05:38:37 10° NNE
USA 129 4.0 05:35:17 10° WSW 05:36:01 11° W 05:36:47 10° WNW
CZ-4B R/B 3.6 05:31:17 10° N 05:36:45 50° WNW 05:42:10 10° SW
Resurs 1-4 Rocket 3.9 05:35:01 10° NNW 05:38:10 16° WNW 05:41:18 10° W
Cosmos 2082 Rocket 2.3 05:34:53 10° NNW 05:40:38 87° WSW 05:46:19 10° SSE
CZ-3 Stage 3 4.0 05:28:01 10° WSW 05:58:13 58° S 06:03:43 10° E
